Starlink 30769

operational
NORAD ID: 58138 Int'l Des: 2023-162 Owner: SPXS Country: US Constellation: starlink
LEOCIRCULAR

About Starlink 30769

Description loading...

Live Position

Loading 3D Globe...

Upcoming Passes

Altitude History

Altitude vs Time

uPlot chart will show altitude changes over time

Two-Line Element Set

1 58138U 23162W 25258.57258398 .00014078 00000-0 10564-2 0 9996
2 58138 43.0058 4.9738 0001595 280.0344 80.0318 15.02492607105955
Epoch: Sep 15, 2025 • Age: 11 hours

Current Status

Altitude 563.3 km
Velocity 7.58 km/s
Sub-Earth Point -20.13°S, 153.29°W
Launch Date Oct 22, 2023
Age 1.9 years
Type internet

Technical Details

Classification Payload
Mass 730.00 kg
Dry Mass 700.00 kg
Total Mass 730.00 kg
Length 0.30 m
Diameter 4.10 m
Span 29.00 m
Shape Box + pan
Manufacturer SPXS
Bus Type Starlink V2M
Phase Status In Orbit
Owner/State SPXS/US

Large Constellations

Loading constellations...